www.pogodaiklimat.ru

Погода и климат >> Архив погоды >> Австралия >> Северная территория >> Виктория-Ривер


ПОГОДА в Виктория-Ривер

  • Прогноз погоды в Виктория-Ривер
  • Монитор погоды в Виктория-Ривер

АРХИВ ПОГОДЫ в Виктория-Ривер

Время (UTC), дата Ветер
(напр.,м/с)
 
Видим.   Явления Облачность Т
(С)
Тd
(С)
f
(%)
Тe
(С)
Тes
(С)
Комфортность P
(гПа)
Po
(гПа)
Тmin
(С)
Tmax
(С)
R
(мм)
R24
(мм)
S
(см)
17 13.09 ЮВ 3 н/о н/о +22.0 -4.9 16 +21 +21 комфорт 1016.2 1005.9
20 13.09 штиль 0 н/о н/о +16.2 -5.5 22 +16 +16 1018.1 1007.8
23 13.09 В 3 25 км ясно +24.3 +7.0 33 +24 +28 комфорт 1020.1 1009.8
02 14.09 В 8 н/о н/о +31.4 +1.7 15 +29 +29 жарко 1017.7 1007.4 +14.9
05 14.09 В 7 н/о н/о +33.8 -2.0 10 +30 +30 жарко 1013.8 1003.6
08 14.09 В 5 н/о н/о +33.2 -1.2 11 +30 +30 жарко 1013.3 1003.1
11 14.09 штиль 0 н/о н/о +23.6 +3.5 27 +23 +23 комфорт 1014.9 1004.7
14 14.09 В 1 н/о н/о +19.6 +4.9 38 +21 +21 комфорт 1015.1 1004.9 +34.7
17 14.09 В 4 н/о н/о +21.8 -0.2 23 +21 +21 комфорт 1014.8 1004.6
20 14.09 штиль 0 н/о н/о +15.9 +4.3 46 +16 +16 1016.6 1006.3
23 14.09 СВ 4 24 км ясно +25.6 +2.3 22 +24 +27 комфорт 1018.7 1008.4
02 15.09 СВ 4 н/о н/о +32.0 +1.2 14 +29 +29 жарко 1016.2 1005.9 +14.8
05 15.09 В 6 н/о н/о +34.8 -1.3 10 +31 +31 жарко 1012.7 1002.5
08 15.09 В 5 н/о н/о +33.9 -3.4 9 +30 +30 жарко 1012.3 1002.1
11 15.09 штиль 0 н/о н/о +23.2 -3.2 17 +22 +22 комфорт 1013.7 1003.5
14 15.09 штиль 0 н/о н/о +18.3 -5.7 19 +18 +18 1014.1 1003.9 +35.9
17 15.09 штиль 0 н/о н/о +19.9 -1.8 23 +20 +20 1014.4 1004.2
20 15.09 З 1 н/о н/о +17.1 +5.1 45 +18 +18 1015.5 1005.2
23 15.09 В 4 н/о н/о +25.2 +3.8 25 +24 +24 комфорт 1017.6 1007.3
02 16.09 СВ 4 н/о н/о +32.3 -0.7 12 +29 +29 жарко 1015.6 1005.3 +15.4
05 16.09 В 4 н/о н/о +34.2 -1.7 10 +30 +30 жарко 1012.1 1001.9
08 16.09 В 4 н/о н/о +34.0 -1.9 10 +30 +30 жарко 1011.3 1001.1
11 16.09 штиль 0 н/о н/о +24.1 -4.1 15 +22 +22 комфорт 1013.1 1002.9
14 16.09 штиль 0 н/о н/о +19.8 -3.1 21 +19 +19 1013.5 1003.3 +35.6
20 16.09 СВ 3 н/о н/о +17.7 +2.1 35 +18 +18 1015.4 1005.1
23 16.09 В 4 15 км 4/0
[Ci fib]
+25.9 +8.0 32 +26 +29 жарко 1017.5 1007.2
05 17.09 СВ 6 н/о н/о +35.7 +1.9 12 +32 +32 жарко 1012.7 1002.5
08 17.09 ЮВ 4 н/о н/о +34.0 -1.9 10 +30 +30 жарко 1012.4 1002.2
11 17.09 ЮВ 2 н/о н/о +24.6 +1.5 22 +23 +23 комфорт 1014.4 1004.2
14 17.09 ЮЗ 1 н/о н/о +20.8 +6.4 39 +23 +23 комфорт 1014.7 1004.5 +36.4
17 17.09 штиль 0 н/о н/о +18.6 +0.7 30 +19 +19 1014.6 1004.4
20 17.09 Ю 2 н/о н/о +17.0 +5.9 48 +18 +18 1016.1 1005.8
23 17.09 СВ 4 25 км 8/0
[Ci fib]
+26.4 +2.3 21 +25 +27 комфорт 1018.1 1007.8
02 18.09 С 4 н/о н/о +33.7 +2.5 14 +31 +31 жарко 1016.3 1006.0 +15.8
05 18.09 ЮВ 4 н/о н/о +35.9 +0.9 11 +32 +32 жарко 1013.0 1002.8
14 18.09 штиль 0 н/о н/о +20.4 +1.8 29 +20 +20 1014.1 1003.9 +37.1
17 18.09 З 2 н/о н/о +21.5 -0.5 23 +21 +21 комфорт 1013.6 1003.4
20 18.09 штиль 0 н/о н/о +16.3 -0.8 31 +16 +16 1014.6 1004.4
23 18.09 В 3 18 км ясно +27.0 +1.4 19 +25 +29 комфорт 1016.2 1005.9
02 19.09 СВ 5 н/о н/о +34.1 +0.7 12 +31 +31 жарко 1013.9 1003.7 +15.8
05 19.09 СВ 5 н/о н/о +36.1 +1.0 11 +33 +33 жарко 1010.3 1000.1
08 19.09 С 4 н/о н/о +35.8 -2.0 9 +32 +32 жарко 1009.6 999.4
11 19.09 штиль 0 н/о н/о +25.6 +4.1 25 +25 +25 комфорт 1011.1 1000.9
14 19.09 штиль 0 н/о н/о +20.7 +3.0 31 +21 +21 комфорт 1011.4 1001.2 +37.6
17 19.09 СВ 4 н/о н/о +27.2 +0.1 17 +25 +25 комфорт 1011.2 1001.0
20 19.09 СВ 3 н/о н/о +20.6 +2.9 31 +21 +21 комфорт 1012.4 1002.2
23 19.09 С 5 н/о н/о +28.3 +9.6 31 +28 +28 жарко 1014.7 1004.5
02 20.09 С 6 н/о н/о +33.5 +6.7 19 +32 +32 жарко 1013.0 1002.8 +19.1
05 20.09 С 4 н/о н/о +35.1 +3.6 14 +32 +32 жарко 1009.8 999.6

 

Местоположение метеостанции Виктория-Ривер (Северная территория, Австралия): широта -16.40 долгота 131.02 высота над уровнем моря 90 м.

В архиве по умолчанию представлена погода в Виктория-Ривер за последнюю неделю. Архивные данные за месяц целиком и за предыдущие месяцы, начиная с января 2011 года, Вы можете получить, выбрав интересующий диапазон дат из раскрывающегося списка и нажав кнопку "Ввод!".


*Определитесь, кто Вы:
робот инопланетянин человек

Внимание! Время в таблицах - всемирное. Для получения местного времени необходимо прибавить поправку, которая равна 9.5 ч.

Смотрите также архив погоды в соседних городах и на ближайших метеорологических станциях:

Погода на Базе ВВС Delamere Weapons Range (Северная территория, Австралия) (120 км)
Погода в Манбуллу Ксиро (Северная территория, Австралия) (163 км)
Погода в Ладжаману (Северная территория, Австралия) (219 км)
Погода в Дейли Уотерс (Северная территория, Австралия) (251 км)
Погода в Тиндале (Северная территория, Австралия) (255 км)
Погода в Кунунарре (Западная Австралия, Австралия) (256 км)
Погода в Аэропорту Аргайл (Западная Австралия, Австралия) (275 км)
Погода на Маяке Кейп-Дон (Северная территория, Австралия) (286 км)
Погода в Порт Китс (Северная территория, Австралия) (288 км)
Погода в Уиндеме (Западная Австралия, Австралия) (323 км)

Пояснения к столбцам:

Ветер - указаны скорость ветра в м/с - средняя за 10 мин, порывы в срок и между сроками (в фигурных скобках) и направление, откуда дует ветер: С - северный, СВ - северо-восточный, В - восточный, ЮВ - юго-восточный, Ю - южный, ЮЗ - юго-западный, З - западный, СЗ - северо-западный.
Видимость - горизонтальная дальность видимости в метрах или километрах. При видимости от 1 до 10 км при отсутствии осадков обычно наблюдается дымка, при ухудшении видимости до 1 км и менее - туман. В сухую погоду видимость может ухудшаться дымом, пылью или мглою.
Явления - указаны атмосферные явления, наблюдавшиеся в срок или в последний час перед сроком; фигурными скобками обозначены явления, наблюдавшиеся между сроками (за 1-3 часа до срока); квадратными скобками обозначены град или гололедные отложения с указанием их диаметра в мм.
Облачность - указаны через наклонную черту общая и нижняя облачность в баллах и высота нижней границы облаков в метрах; квадратными скобками обозначены формы облаков: Ci - перистые, Cs - перисто-слоистые, Cc - перисто-кучевые, Ac - высококучевые, As - высокослоистые, Sc - слоисто-кучевые, Ns - слоисто-дождевые, Cu - кучевые, Cb - кучево-дождевые. Подробнее классификацию облаков см. в Атласе облаков (PDF).
T - Температура воздуха - температура, измеренная на высоте 2 м над землей.
Td - Температура точки росы - температура, при понижении до которой содержащийся в воздухе водяной пар достигнет насыщения.
f - Относительная влажность воздуха - влажноcть воздуха, измеренная на высоте 2 м над землей.
Te - Эффективная температура - температура, которую ощущает одетый по сезону человек в тени. Характеристика душности погоды. При расчете учитывается влияние влажности воздуха и скорости ветра на теплоощущения человека.
Tes - Эффективная температура на солнце - температура, которую ощущает человек, с поправкой на солнечный нагрев. Характеристика знойности погоды. Зависит от высоты солнца над горизонтом, облачности и скорости ветра. Ночью, в пасмурную погоду, а также при ветре 12 м/с и более поправка равна нулю.
P - Атмосферное давление - приведенное к уровню моря атмосферное давление.
Po - Атмосферное давление - измеренное на уровне метеостанции атмосферное давление.
Tmin - Минимальная температура - минимум температуры воздуха на высоте 2 м над землей.
Tmax - Максимальная температура - максимум температуры воздуха на высоте 2 м над землей.
R - Количество осадков - Количество выпавших осадков за период времени, мм. При наведении курсора мыши на число - период времени, за который выпало указанное количество осадков.
R24 - Количество осадков - Количество выпавших осадков за 24 часа, мм.
S - Снежный покров - Высота снежного покрова, см. При наведении курсора мыши на число - состояние снежного покрова и степень покрытия местности в баллах.